#timestamp,LO_Frequency,Hit,StdDev 
1581242415.8,286046993.9,Y
1581242435.7,286046997.4,P
1581242455.5,286046997.3,P
1581242475.4,286046993.4,P
1581242495.2,286046992.2,Y
1581242515.0,286046995.3,P
1581242515.9,286046995.3,P
1581242535.8,286046995.8,P
1581242555.6,286046998.0,Y
1581242575.4,286046998.5,P
1581242595.3,286046998.2,N
1581242615.1,286047000.1,N
1581242635.9,286047000.6,N
1581242655.7,286046998.4,N
1581242675.5,286046998.7,N
1581242695.4,286046999.2,N
1581242715.2,286046996.7,N
1581242735.1,286046994.9,Y
1581242736.0,286046994.9,P
1581242755.8,286046998.9,N
1581242775.7,286046998.7,N
1581242795.5,286046997.2,N
1581242815.3,286046995.1,Y
1581242835.2,286047000.8,P
1581242855.0,286046998.7,N
1581242855.9,286046998.7,N
1581242875.8,286046996.5,Y
1581242895.6,286046999.5,P
1581242915.4,286046997.3,P
1581242935.3,286046997.1,P
1581242955.1,286046996.6,Y
1581242975.9,286046998.7,P
1581242995.7,286046999.4,N
1581243015.5,286046999.2,N
1581243035.4,286046999.3,N
1581243055.2,286046999.1,N
1581243075.1,286046996.5,Y
1581243076.0,286046996.5,P
1581243095.8,286046998.7,N
1581243115.6,286046999.5,N
1581243135.5,286047001.2,N
1581243155.3,286047002.8,N
1581243175.1,286046999.9,N
1581243195.9,286047001.0,N
1581243215.7,286047000.9,N
1581243235.6,286047000.7,N
1581243255.4,286047001.1,N
1581243275.2,286047002.6,N
1581243295.1,286047001.8,N
1581243296.0,286047001.8,N
1581243315.8,286047004.4,N
1581243335.7,286047000.3,N
1581243355.5,286046998.5,N
1581243375.3,286047001.0,N
1581243395.2,286047001.0,N
1581243415.9,286046999.7,N
1581243435.7,286047002.7,N
1581243455.6,286047002.7,N
1581243475.4,286047000.4,N
1581243495.3,286046998.5,N
1581243515.1,286047000.0,N
1581243516.0,286047000.0,N
1581243535.8,286047000.4,N
1581243555.7,286046998.6,N
1581243575.5,286046998.9,N
1581243595.3,286046997.5,N
1581243615.2,286046997.5,N
1581243635.0,286046997.8,N
1581243635.9,286046997.8,N
1581243655.8,286046996.7,N
1581243675.6,286046999.0,N
1581243695.4,286046999.3,N
1581243715.3,286046998.4,N
1581243735.1,286046998.1,N
1581243755.9,286047001.0,N
1581243775.7,286046998.5,N
1581243795.5,286047001.0,N
1581243815.4,286047002.6,N
1581243835.2,286047001.6,N
1581243855.0,286047003.8,N
1581243855.9,286047003.8,N
1581243875.8,286047003.4,N
1581243895.6,286047005.8,N
1581243915.5,286047005.6,N
1581243935.3,286047005.9,N
1581243955.1,286047003.4,N
1581243975.9,286047003.4,N
1581243995.7,286047005.4,N
1581244015.5,286047005.7,N
1581244035.4,286047003.3,N
1581244055.2,286047006.0,N
1581244075.1,286047005.6,N
1581244076.0,286047005.6,N
1581244095.8,286047005.8,N
1581244115.6,286047004.2,N
1581244135.5,286047004.1,N
1581244155.3,286047003.3,N
1581244175.1,286047003.0,N
1581244195.9,286047005.4,N
1581244215.7,286047006.3,N
1581244235.6,286047007.4,N
1581244255.4,286047007.1,N
1581244275.2,286047004.9,N
1581244295.1,286047005.0,N
1581244296.0,286047005.0,N
1581244315.8,286047004.6,N
1581244335.7,286047004.7,Y
1581244355.5,286047000.0,P
1581244375.3,286046999.7,N
1581244395.2,286047002.4,N
1581244415.0,286047003.9,N
1581244415.9,286047003.9,N
1581244435.8,286047003.9,N
1581244455.6,286047003.9,N
1581244475.4,286047002.7,N
1581244495.3,286047001.7,N
1581244515.1,286047003.9,N
1581244535.9,286047002.7,N
1581244555.7,286047000.3,N
1581244575.5,286047000.4,N
1581244595.4,286047002.7,N
1581244615.2,286047001.6,N
1581244635.0,286047002.2,N
1581244635.9,286047002.2,N
1581244655.8,286047004.0,N
1581244675.6,286047003.6,N
1581244695.5,286047003.8,N
1581244715.3,286047001.3,N
1581244735.1,286047003.8,N
1581244755.9,286047005.4,Y
1581244775.7,286046999.9,P
1581244795.5,286047000.6,N
1581244815.4,286047000.6,N
1581244835.2,286047000.9,N
1581244855.1,286046998.5,N
1581244856.0,286046998.5,N
1581244875.8,286047000.6,N
1581244895.6,286046998.4,N
1581244915.5,286047000.9,N
1581244935.3,286047000.4,N
1581244955.1,286047000.7,N
1581244975.9,286047000.1,N
1581244995.7,286046999.7,N
1581245015.6,286047000.5,N
1581245035.4,286046999.9,N
1581245055.2,286047000.4,N
1581245075.1,286047002.0,N
1581245076.0,286047002.0,N
1581245095.8,286047002.4,N
1581245115.6,286047001.9,N
1581245135.5,286047003.3,N
1581245155.3,286047002.5,N
1581245175.2,286047002.3,N
1581245195.9,286047002.4,N
1581245215.7,286047003.8,N
1581245235.6,286047003.3,N
1581245255.4,286047001.7,N
1581245275.2,286047002.5,N
1581245295.1,286047004.3,N
1581245296.0,286047004.3,N
1581245315.8,286047004.4,N
1581245335.7,286047004.1,N
1581245355.5,286047002.9,N
1581245375.3,286047004.4,N
1581245395.2,286047004.3,N
1581245415.0,286047001.4,N
1581245415.9,286047001.4,N
1581245435.8,286047002.3,N
1581245455.6,286047002.7,N
1581245475.4,286047003.6,N
1581245495.3,286047004.7,Y
1581245515.1,286047001.6,P
1581245535.9,286047001.5,P
1581245555.7,286047005.5,P
1581245575.5,286047001.3,N
1581245595.4,286047003.5,N
1581245615.2,286047001.5,N
1581245635.0,286047004.4,Y
1581245636.0,286047004.4,P
1581245655.8,286047001.5,N
1581245675.6,286046999.8,N
1581245695.5,286047000.7,N
1581245715.3,286047000.0,N
1581245735.1,286046998.3,N
1581245755.9,286047000.9,N
1581245775.7,286046998.3,N
1581245795.6,286046996.5,N
1581245815.4,286047001.2,N
1581245835.2,286047001.2,N
1581245855.1,286046998.9,N
1581245856.0,286046998.9,N
1581245875.8,286046999.0,N
1581245895.6,286047001.1,N
1581245915.5,286047000.9,N
1581245935.3,286047000.3,N
1581245955.2,286047000.6,N
1581245975.9,286047000.4,N
1581245995.7,286047002.8,N
